Home   Weather   Fairbanks   Past weeks

Flag for USA Past Weather in Fairbanks, Alaska, USA — Yesterday and Last 2 Weeks

9 °F

Passing clouds.

Feels Like: 9 °F
Forecast: -5 / 8 °F
Wind: No wind

Location: Wainwright U. S. Army Airfield

Current Time: Oct 27, 2016 at 12:46:54 PM

Latest Report: Oct 27, 2016 at 11:58 AM

Visibility: 10 mi

Pressure: 29.81 "Hg

Humidity: 84%

Dew Point: 5 °F

Location of FairbanksLocation

Past Weather in Fairbanks — Graph


Fairbanks Temperature Yesterday

Maximum temperature yesterday: 22 °F (at 3:58 PM)
Minimum temperature yesterday: 4 °F (at 1:58 AM)
Average temperature yesterday: 10 °F

High & Low Weather Summary for the Past Weeks

High54 °F (Oct 12, 3:58 PM)94% (Oct 20, 6:58 PM)30.40 "Hg (Oct 20, 6:58 PM)
Low-5 °F (Oct 24, 9:58 AM)25% (Oct 12, 3:58 PM)29.48 "Hg (Oct 17, 3:58 PM)
Average18 °F71%29.85 "Hg
* Reported Oct 12 10:58 AM — Oct 27 10:58 AM, Fairbanks, Weather by CustomWeather, © 2016

Note: Actual official high and low records may vary slightly from our data, if they occured in-between our weather recording intervals... More about our weather records


Fairbanks Weather History for the Previous 24 Hours

Scroll right to see more
Time TempWeatherWind HumidityBarometerVisibility
10:58 AM
Thu, Oct 27
3 °FPassing clouds.No wind81%29.80 "Hg10 mi
9:58 AM0 °FPassing clouds.No wind82%29.80 "Hg10 mi
8:58 AM-1 °FPassing clouds.No wind82%29.80 "Hg10 mi
7:58 AM1 °FClear.No wind82%29.80 "Hg10 mi
6:58 AM-1 °FPassing clouds.No wind82%29.79 "Hg10 mi
5:58 AM1 °FClear.No wind82%29.78 "Hg10 mi
4:58 AM1 °FClear.No wind83%29.77 "Hg10 mi
3:58 AM2 °FClear.No wind84%29.76 "Hg9 mi
2:58 AM2 °FClear.No wind84%29.74 "Hg9 mi
1:58 AM4 °FClear.No wind87%29.75 "Hg9 mi
12:58 AM4 °FClear.No wind85%29.75 "Hg10 mi
11:58 PM
Wed, Oct 26
4 °FClear.No wind87%29.74 "Hg10 mi
10:58 PM6 °FClear.No wind87%29.75 "Hg10 mi
9:58 PM8 °FClear.No wind87%29.74 "Hg10 mi
8:58 PM9 °FClear.No wind88%29.74 "Hg10 mi
7:58 PM10 °FClear.No wind88%29.74 "Hg10 mi
6:58 PM13 °FPassing clouds.No wind88%29.75 "Hg9 mi
5:58 PM17 °FPassing clouds.No wind84%29.75 "Hg7 mi
4:58 PM19 °FSunny.No wind76%29.76 "Hg9 mi
3:58 PM22 °FScattered clouds.No wind70%29.78 "Hg7 mi
2:58 PM20 °FScattered clouds.No wind71%29.80 "Hg8 mi
1:58 PM18 °FScattered clouds.No wind74%29.84 "Hg10 mi
12:58 PM16 °FScattered clouds.No wind77%29.88 "Hg10 mi
Weather by CustomWeather, © 2016

See weather overviewHow to use our weather pages